Regional Weather Roundup
Issued by NWS Goodland, KS

Home | Current Version | Previous Version | Graphics & Text | Print | Product List | Glossary On
Versions: 1 2 3 4 5 6 7 8 9 10 11 12 13 14 15 16 17 18 19 20 21 22 23 24 25 26 27 28 29 30 31 32 33 34 35 36 37 38 39 40 41 42 43 44 45 46 47 48 49 50
000
ASUS43 KGLD 181959
RWRGLD

GOODLAND FORECAST AREA HOURLY WEATHER ROUNDUP
NATIONAL WEATHER SERVICE GOODLAND KS
100 PM MST SUN FEB 18 2018

...OFFICIAL OBSERVATIONS...

CITY           SKY/WX    TMP DP  RH WIND       PRES   REMARKS
GOODLAND KS    MOSUNNY   69  12  11 SW25G35   29.45F
HILL CITY KS   CLOUDY    67  30  25 S17G29    29.51F
IMPERIAL NEB   MOSUNNY   58  29  33 E7        29.43F
MCCOOK NEB     SUNNY     57  33  40 S13       29.46F
AKRON CO       SUNNY     68  12  11 SW16G25   29.44F
BURLINGTON CO  MOSUNNY   67  12  12 SW26G38   29.49F
LIMON CO       SUNNY     64   5   9 S21G30    29.49F
$$

...UNOFFICIAL OBSERVATIONS...

CITY           SKY/WX    TMP DP  RH WIND       PRES   REMARKS
LENORA KS        N/A     62  32  32 S10         N/A
NORTON KS      SUNNY     61  19  20 S15       29.50
SHARON SPRINGS   N/A     69  21  16 W12G25      N/A
TRENTON NEB      N/A     60  32  34 CALM        N/A
KIT CARSON CO    N/A     62  20  20 MISG        N/A
$$




USA.gov is the U.S. government's official web portal to all federal, state and local government web resources and services.